sat.trackr.live / text

‹ back to catalog

STARLINK-4047

NORAD 53243 · 2022-086B

PAYLOAD ACTIVE UNKNOWN

§ Identity

Operator
Country
US
Launch date
2022-07-24
Launch site
AFETR
Launch vehicle
Mass (kg)
RCS (m²)

Purposes: comms

External: N2YO · Heavens-Above · Gunter

§ Orbital elements

Epoch: 2026-05-24T22:01:44.303232Z

Period
95.44 min
Inclination
53.2126°
Eccentricity
0.0001087
Mean motion
15.08833993 rev/d
Perigee alt
539.0 km
Apogee alt
540.5 km
Semi-major
6,917.9 km
B*
7.3472e-6
RAAN
221.6119°
Arg perigee
86.9809°
Mean anomaly
273.1308°
Rev number
21,277

§ Raw data

STARLINK-40471 53243U 22086B   26144.91787388 -.00000171  00000+0  73472-5 0  99902 53243  53.2126 221.6119 0001087  86.9809 273.1308 15.08833993212778

JSON: /api/v1/satellites/53243 · /tle

For live sub-satellite position, see the globe view (requires WebGL).

§ Visibility from observer

Set your observer location to see the next 7 days of passes ≥ 10°. The values pass through the URL so the page stays shareable.

No JS? Fill the form by hand. The geolocation button needs JavaScript.